Hourly Weather Al Marfa

Today, 2 March, Tuesday

Time Temperature Precipitation Wind Pressure Humidity
00:00 +22°C° 0 mm 4 mps 760 mmHg 63%
01:00 +22°C° 0 mm 4 mps 760 mmHg 64%
02:00 +22°C° 0 mm 4 mps 759 mmHg 58%
03:00 +22°C° 0 mm 5 mps 759 mmHg 53%
04:00 +22°C° 0 mm 5 mps 759 mmHg 47%
05:00 +21°C° 0 mm 4 mps 759 mmHg 45%
06:00 +21°C° 0 mm 4 mps 760 mmHg 44%
07:00 +21°C° 0 mm 4 mps 761 mmHg 42%
08:00 +23°C° 0 mm 4 mps 761 mmHg 37%
09:00 +27°C° 0 mm 3 mps 761 mmHg 32%
10:00 +30°C° 0 mm 4 mps 761 mmHg 29%
11:00 +32°C° 0 mm 4 mps 761 mmHg 27%
12:00 +34°C° 0 mm 4 mps 761 mmHg 25%
13:00 +36°C° 0 mm 3 mps 760 mmHg 23%
14:00 +35°C° 0 mm 4 mps 760 mmHg 24%
15:00 +35°C° 0 mm 4 mps 759 mmHg 26%
16:00 +35°C° 0 mm 4 mps 759 mmHg 27%
17:00 +32°C° 0 mm 4 mps 759 mmHg 35%
18:00 +29°C° 0 mm 5 mps 759 mmHg 43%
19:00 +27°C° 0 mm 5 mps 759 mmHg 52%
20:00 +27°C° 0 mm 4 mps 760 mmHg 53%
21:00 +26°C° 0 mm 4 mps 760 mmHg 55%
22:00 +26°C° 0 mm 4 mps 760 mmHg 57%
23:00 +25°C° 0 mm 4 mps 760 mmHg 61%

Tomorrow, 3 March, Wednesday

Time Temperature Precipitation Wind Pressure Humidity
00:00 +25°C° 0 mm 5 mps 760 mmHg 66%
01:00 +23°C° 0 mm 5 mps 760 mmHg 70%
02:00 +23°C° 0 mm 5 mps 760 mmHg 74%
03:00 +22°C° 0 mm 5 mps 759 mmHg 78%
04:00 +22°C° 0 mm 5 mps 759 mmHg 81%
05:00 +22°C° 0 mm 4 mps 760 mmHg 81%
06:00 +22°C° 0 mm 4 mps 760 mmHg 80%
07:00 +21°C° 0 mm 3 mps 761 mmHg 80%
08:00 +24°C° 0 mm 3 mps 761 mmHg 70%
09:00 +25°C° 0 mm 3 mps 761 mmHg 61%
10:00 +27°C° 0 mm 4 mps 762 mmHg 51%
11:00 +28°C° 0 mm 4 mps 761 mmHg 48%
12:00 +28°C° 0 mm 4 mps 761 mmHg 45%
13:00 +29°C° 0 mm 4 mps 760 mmHg 42%
14:00 +29°C° 0 mm 4 mps 760 mmHg 44%
15:00 +29°C° 0 mm 4 mps 759 mmHg 45%
16:00 +28°C° 0 mm 4 mps 759 mmHg 46%
17:00 +27°C° 0 mm 4 mps 759 mmHg 53%
18:00 +25°C° 0 mm 4 mps 759 mmHg 59%
19:00 +23°C° 0 mm 5 mps 759 mmHg 65%
20:00 +23°C° 0 mm 4 mps 760 mmHg 65%
21:00 +23°C° 0 mm 4 mps 760 mmHg 65%
22:00 +22°C° 0 mm 4 mps 761 mmHg 66%
23:00 +22°C° 0 mm 3 mps 761 mmHg 66%

Day after tomorrow, 4 March, Thursday

Time Temperature Precipitation Wind Pressure Humidity
00:00 +22°C° 0 mm 3 mps 761 mmHg 66%
01:00 +21°C° 0 mm 2 mps 760 mmHg 67%
02:00 +21°C° 0 mm 2 mps 760 mmHg 67%
03:00 +21°C° 0 mm 1 mps 759 mmHg 68%
04:00 +21°C° 0 mm 1 mps 759 mmHg 69%
05:00 +21°C° 0 mm 1 mps 759 mmHg 67%
06:00 +20°C° 0 mm 2 mps 760 mmHg 66%
07:00 +20°C° 0 mm 2 mps 760 mmHg 65%
08:00 +23°C° 0 mm 2 mps 760 mmHg 56%
09:00 +26°C° 0 mm 2 mps 760 mmHg 47%
10:00 +28°C° 0 mm 2 mps 761 mmHg 38%
11:00 +29°C° 0 mm 2 mps 760 mmHg 35%
12:00 +30°C° 0 mm 3 mps 760 mmHg 32%
13:00 +33°C° 0 mm 3 mps 759 mmHg 29%
14:00 +33°C° 0 mm 3 mps 759 mmHg 29%
15:00 +33°C° 0 mm 3 mps 758 mmHg 29%
16:00 +33°C° 0 mm 3 mps 758 mmHg 29%
17:00 +31°C° 0 mm 3 mps 758 mmHg 32%
18:00 +29°C° 0 mm 4 mps 758 mmHg 35%
19:00 +28°C° 0 mm 4 mps 758 mmHg 39%
20:00 +27°C° 0 mm 4 mps 759 mmHg 40%
21:00 +27°C° 0 mm 4 mps 759 mmHg 41%
22:00 +26°C° 0 mm 4 mps 759 mmHg 42%
23:00 +26°C° 0 mm 4 mps 759 mmHg 42%

5 March, Friday

Time Temperature Precipitation Wind Pressure Humidity
00:00 +26°C° 0 mm 4 mps 759 mmHg 42%
01:00 +26°C° 0 mm 4 mps 759 mmHg 43%
02:00 +25°C° 0 mm 4 mps 759 mmHg 42%
03:00 +25°C° 0 mm 4 mps 758 mmHg 41%
04:00 +25°C° 0 mm 4 mps 758 mmHg 40%
05:00 +25°C° 0 mm 4 mps 758 mmHg 37%
06:00 +25°C° 0 mm 4 mps 759 mmHg 35%
07:00 +26°C° 0 mm 5 mps 759 mmHg 33%
08:00 +28°C° 0 mm 5 mps 759 mmHg 28%
09:00 +32°C° 0 mm 6 mps 760 mmHg 24%
10:00 +34°C° 0 mm 6 mps 760 mmHg 20%
11:00 +36°C° 0 mm 6 mps 760 mmHg 18%
12:00 +39°C° 0 mm 5 mps 759 mmHg 15%
13:00 +41°C° 0 mm 5 mps 759 mmHg 13%
14:00 +39°C° 0 mm 6 mps 758 mmHg 17%
15:00 +36°C° 0 mm 7 mps 758 mmHg 22%
16:00 +34°C° 0 mm 8 mps 757 mmHg 26%
17:00 +31°C° 0 mm 8 mps 758 mmHg 39%
18:00 +27°C° 0 mm 8 mps 758 mmHg 51%
19:00 +24°C° 0 mm 8 mps 759 mmHg 64%
20:00 +23°C° 0 mm 8 mps 760 mmHg 69%
21:00 +23°C° 0 mm 7 mps 760 mmHg 74%
22:00 +22°C° 0 mm 7 mps 761 mmHg 78%
23:00 +22°C° 0 mm 7 mps 761 mmHg 77%

6 March, Saturday

Time Temperature Precipitation Wind Pressure Humidity
00:00 +21°C° 0 mm 6 mps 761 mmHg 75%
01:00 +21°C° 0 mm 6 mps 761 mmHg 73%
02:00 +21°C° 0 mm 6 mps 761 mmHg 72%
03:00 +21°C° 0 mm 6 mps 760 mmHg 70%
04:00 +21°C° 0 mm 6 mps 760 mmHg 68%
05:00 +21°C° 0 mm 6 mps 761 mmHg 67%
06:00 +20°C° 0 mm 7 mps 761 mmHg 67%
07:00 +20°C° 0 mm 7 mps 762 mmHg 66%
08:00 +21°C° 0 mm 7 mps 762 mmHg 62%
09:00 +23°C° 0 mm 8 mps 763 mmHg 57%
10:00 +24°C° 0 mm 8 mps 763 mmHg 52%
11:00 +24°C° 0 mm 8 mps 763 mmHg 50%
12:00 +26°C° 0 mm 9 mps 762 mmHg 49%
13:00 +26°C° 0 mm 9 mps 762 mmHg 48%
14:00 +24°C° 0 mm 9 mps 761 mmHg 50%
15:00 +24°C° 0 mm 9 mps 761 mmHg 52%
16:00 +23°C° 0 mm 9 mps 761 mmHg 54%
17:00 +22°C° 0 mm 9 mps 761 mmHg 57%
18:00 +22°C° 0 mm 8 mps 761 mmHg 61%
19:00 +21°C° 0 mm 7 mps 761 mmHg 65%
20:00 +21°C° 0 mm 8 mps 762 mmHg 65%
21:00 +20°C° 0 mm 8 mps 762 mmHg 66%
22:00 +20°C° 0 mm 8 mps 762 mmHg 67%
23:00 +20°C° 0 mm 8 mps 762 mmHg 68%

7 March, Sunday

Time Temperature Precipitation Wind Pressure Humidity
00:00 +20°C° 0 mm 8 mps 762 mmHg 68%
01:00 +18°C° 0 mm 8 mps 761 mmHg 69%
02:00 +18°C° 0 mm 8 mps 761 mmHg 68%
03:00 +18°C° 0 mm 8 mps 761 mmHg 68%
04:00 +18°C° 0 mm 8 mps 760 mmHg 67%
05:00 +18°C° 0 mm 7 mps 761 mmHg 66%
06:00 +18°C° 0 mm 7 mps 761 mmHg 65%
07:00 +18°C° 0 mm 7 mps 761 mmHg 63%
08:00 +20°C° 0 mm 7 mps 761 mmHg 56%
09:00 +22°C° 0 mm 8 mps 762 mmHg 49%
10:00 +23°C° 0 mm 8 mps 762 mmHg 42%
11:00 +24°C° 0 mm 8 mps 761 mmHg 41%
12:00 +24°C° 0 mm 8 mps 761 mmHg 39%
13:00 +26°C° 0 mm 8 mps 760 mmHg 37%
14:00 +24°C° 0 mm 8 mps 760 mmHg 39%
15:00 +24°C° 0 mm 8 mps 759 mmHg 41%
16:00 +23°C° 0 mm 8 mps 759 mmHg 43%
17:00 +22°C° 0 mm 7 mps 759 mmHg 47%
18:00 +21°C° 0 mm 6 mps 759 mmHg 51%
19:00 +20°C° 0 mm 5 mps 759 mmHg 56%
20:00 +19°C° 0 mm 5 mps 760 mmHg 59%
21:00 +19°C° 0 mm 5 mps 760 mmHg 62%
22:00 +19°C° 0 mm 5 mps 760 mmHg 65%
23:00 +17°C° 0 mm 5 mps 760 mmHg 66%
Show more